Location: Augsburg
(48.3836°N, 10.8929°E)
Time: 16:44:50
(UTC+02:00)

ISS - Pass Details

Date: 21 May 2021
Orbit: 417 x 422 km, 51.6° (Epoch: 12 June)

Event Time Altitude Azimuth Distance (km) Brightness Sun altitude
Rises 22:07:11 0° 269° (W) 2,363 0.8 -9.7°
Reaches altitude 10° 22:09:20 10° 275° (W) 1,500 -0.2 -10.0°
Maximum altitude 22:12:37 49° 352° (N) 549 -2.8 -10.3°
Drops below altitude 10° 22:15:55 10° 69° (ENE) 1,505 -1.2 -10.7°
Sets 22:18:04 0° 75° (ENE) 2,371 -0.2 -10.9°
